Regional Weather Roundup
Issued by NWS Newport/Morehead, NC

Current Version | Previous Version | Graphics & Text | Print | Product List | Glossary Off
Versions: 1 2 3 4 5 6 7 8 9 10 11 12 13 14 15 16 17 18 19 20 21 22 23 24 25 26 27 28 29 30 31 32 33 34 35 36 37 38 39 40 41 42 43 44 45 46 47 48 49 50

000
ASUS42 KMHX 242214
RWRMHX
WEATHER ROUNDUP FOR EASTERN NORTH CAROLINA
NATIONAL WEATHER SERVICE NEWPORT/MOREHEAD CITY NC
500 PM EST SAT FEB 24 2018

NOTE: "FAIR" INDICATES FEW OR NO CLOUDS BELOW 12,000 FEET
WITH NO SIGNIFICANT WEATHER AND/OR OBSTRUCTIONS TO VISIBILITY

NCZ015>017-031-032-045>047-102-103-242300-
NORTH COAST

CITY           SKY/WX    TMP DP  RH WIND       PRES   REMARKS
EDENTON        FAIR      76  61  59 SW6       30.10F
ELIZABETH CITY FAIR      74  62  66 SW10      30.09F
KITTY HAWK     FAIR      69  59  69 CALM      30.09F
MANTEO         FAIR      70  61  73 S9        30.11F

$$

NCZ045>047-081-094-103-104-242300-
CENTRAL COAST

CITY           SKY/WX    TMP DP  RH WIND       PRES   REMARKS
FRISCO         FAIR      67  63  87 SW10      30.15S

$$

NCZ095-097-098-100-101-242300-
SOUTHERN COAST

CITY           SKY/WX    TMP DP  RH WIND       PRES   REMARKS
BEAUFORT       FAIR      68  62  81 SW16      30.14S
CEDAR ISLAND   NOT AVBL
JACKSONVILLE   FAIR      75  63  66 S10       30.11S
PINEY ISLAND   NOT AVBL
WILMINGTON     FAIR      75  62  64 SW13      30.14R


$$

NCZ011>013-027>030-043-044-078>080-089-090>093-098-242300-
COASTAL PLAIN

CITY           SKY/WX    TMP DP  RH WIND       PRES   REMARKS
AHOSKIE        FAIR      73  59  61 S5        30.08F
CLINTON        FAIR      78  59  51 SW8       30.10F
ELIZABETHTOWN  NOT AVBL
GOLDSBORO      FAIR      78  59  51 SW10      30.08F
GREENVILLE     FAIR      77  59  53 SW9       30.11F
HAVELOCK       NOT AVBL
KENANSVILLE    FAIR      79  59  50 SW3       30.11S
KINSTON        FAIR      79  57  47 S9        30.11F
NEW BERN       PTSUNNY   76  63  64 S8        30.12S
RICHLANDS      PTSUNNY   77  60  55 S7        30.11F
ROCKY MOUNT    FAIR      75  60  59 S10       30.09F
WASHINGTON     FAIR      77  58  51 SW7       30.11S
WHITEVILLE     PTSUNNY   76  63  62 S7        30.11S

$$

AMZ130-135-150-152-154-156-158-170-250-252-270-ANZ085-086-088-633-658-670-242300-
MARINE OBSERVATIONS

STATION/POSITION TIME  TEMP    WIND        PRES    WAVE   SWELL
                       AIR SEA DIR/SP/G            HT/PER HT/PER
                 (UTC) (F)     (DEG/KT/KT) (MB)    (FT/S) (FT/S)
CHESAPEAKE LIGHT NOT AVBL
64 E VA BEACH    2150   55 51  210/ 12/ 12 1019.8    3/ 8   3/ 8
DUCK             2148   70 47  240/  7/  9 1018.8
2 E DUCK         2200      49                N/A     2/ 9   2/11
OREGON INLET     2148          190/ 13/ 15   N/A
13E OREGON INLT  2148      49                N/A     3/ 9   3/ 9
HATTERAS CG      2148   67 61  220/  9/ 13 1020.7
DIAMOND BUOY     2150   72 73  230/ 19/ 23 1021.2    5/ 9   3/ 9
CAPE LOOKOUT     2200          210/  9/ 13 1021.2
BEAUFORT LAB     2148   65 60  210/ 11/ 13 1020.8
30 SE NEW RVR IN 2108   71 70  220/ 12/ 16 1021.0
30 SE NEW RVR IN 2200      69                N/A     4/11   2/11
27 SE WRIGHTSVLE 2108   69 69  220/ 14/ 17 1021.3
5 SE WRIGHTSVLE  2108   64 60  220/ 10/ 14 1020.7
225 S CAPE HAT   2150   72 73  210/  8/ 10 1023.7    5/10   5/10
41 SE CHARLESTON 2150   71 71  200/  6/  8 1021.1    4/10   3/10

$$



USA.gov is the U.S. government's official web portal to all federal, state and local government web resources and services.